Location: Newark
(7.0858°N, 171.3717°E)
Time: 13:26:26
(UTC+00:00)

Vanguard 1 Rocket - Pass Details

Date: 30 November 2020
Orbit: 655 x 4222 km, 34.3° (Epoch: 23 January)

Event Time Altitude Azimuth Distance (km) Brightness Sun altitude
Rises 07:52:17 0° 204° (SSW) 5,278 12.0 -23.2°
Reaches altitude 10° 07:55:56 10° 193° (SSW) 4,737 11.4 -24.1°
Maximum altitude 08:08:22 31° 135° (SE) 4,564 10.7 -27.0°
Enters shadow 08:16:15 25° 105° (ESE) 5,509 10.9 -28.8°
